YO9IPZ-13 Weather Reports


Display with metric or nautical units.
time (UTC)temp
F
wind
direction
speed
MPH
gust
MPH
rain 1hr
in
rain 24hr
in
rain mn
in
humidity
%
barometer
mb
20201030101025 59 257 5.0 8.0 0.00 0.00 0.00 68 1017.0
20201030100557 59 254 5.0 8.0 0.00 0.00 0.00 67 1016.5
20201030100020 59 245 5.0 10.0 0.00 0.00 0.00 68 1016.0
20201030095544 59 253 6.0 10.0 0.00 0.00 0.00 68 1016.0
20201030095023 59 257 6.0 11.0 0.00 0.00 0.00 67 1016.0
20201030094527 59 247 6.0 11.0 0.00 0.00 0.00 67 1016.0
20201030093527 59 251 6.0 9.0 0.00 0.00 0.00 67 1016.5
20201030092521 59 249 7.0 11.0 0.00 0.00 0.00 66 1017.0
20201030092030 59 255 6.0 9.0 0.00 0.00 0.00 65 1017.0
20201030091520 59 245 7.0 13.0 0.00 0.00 0.00 65 1017.0
20201030090522 59 247 5.0 8.0 0.00 0.00 0.00 67 1016.5
20201030090032 59 258 6.0 10.0 0.00 0.00 0.00 66 1016.0
20201030085536 59 245 6.0 10.0 0.00 0.00 0.00 67 1016.0
20201030085045 59 240 5.0 8.0 0.00 0.00 0.00 69 1016.5
20201030084523 59 245 6.0 9.0 0.00 0.00 0.00 68 1017.0
20201030084021 59 248 7.0 10.0 0.00 0.00 0.00 68 1017.0
20201030083036 59 254 7.0 11.0 0.00 0.00 0.00 71 1017.0
20201030082546 59 254 5.0 10.0 0.00 0.00 0.00 73 1017.0
20201030082024 58 253 6.0 10.0 0.00 0.00 0.00 72 1017.0
20201030081519 58 251 6.0 10.0 0.00 0.00 0.00 74 1017.0
20201030080519 58 248 6.0 9.0 0.00 0.00 0.00 75 1017.0
20201030080049 58 252 4.0 9.0 0.00 0.00 0.00 77 1017.0
20201030075517 58 255 5.0 8.0 0.00 0.00 0.00 77 1017.0
20201030075032 58 261 5.0 8.0 0.00 0.00 0.00 79 1017.0
20201030074534 58 254 4.0 8.0 0.00 0.00 0.00 79 1017.0
20201030074030 58 250 4.0 6.0 0.00 0.00 0.00 80 1017.0
20201030073520 57 242 3.0 4.0 0.00 0.00 0.00 81 1017.0
20201030072523 57 234 3.0 6.0 0.00 0.00 0.00 81 1017.0
20201030072021 57 227 3.0 6.0 0.00 0.00 0.00 81 1016.5
20201030071524 57 242 2.0 5.0 0.00 0.00 0.00 81 1016.0
20201030065542 57 209 5.0 7.0 0.00 0.00 0.00 83 1017.0
20201030065018 57 206 4.0 7.0 0.00 0.00 0.00 83 1016.5
20201030064528 57 223 2.0 6.0 0.00 0.00 0.00 83 1016.0
20201030063522 56 242 2.0 4.0 0.00 0.00 0.00 83 1016.5
20201030063023 56 245 2.0 4.0 0.00 0.00 0.00 83 1017.0
20201030062523 56 232 2.0 3.0 0.00 0.00 0.00 83 1017.0
20201030062049 56 225 3.0 4.0 0.00 0.00 0.00 83 1017.0
20201030061526 56 225 2.0 5.0 0.00 0.00 0.00 83 1017.0
20201030061025 56 222 2.0 3.0 0.00 0.00 0.00 83 1017.0
20201030060536 56 231 1.0 5.0 0.00 0.00 0.00 83 1017.0
20201030060051 56 229 2.0 4.0 0.00 0.00 0.00 83 1017.0
20201030054533 56 231 1.0 3.0 0.00 0.00 0.00 82 1016.0
20201030054041 56 225 1.0 5.0 0.00 0.00 0.00 82 1016.0
20201030052519 55 222 3.0 4.0 0.00 0.00 0.00 82 1017.0
20201030052025 55 222 3.0 4.0 0.00 0.00 0.00 83 1017.0
20201030051522 55 221 3.0 6.0 0.00 0.00 0.00 83 1017.0
20201030051016 55 206 3.0 5.0 0.00 0.00 0.00 83 1017.0
20201030050530 55 219 3.0 5.0 0.00 0.00 0.00 83 1017.0
20201030050044 55 195 2.0 4.0 0.00 0.00 0.00 83 1017.0
20201030045523 55 187 0.0 2.0 0.00 0.00 0.00 83 1017.0
20201030045028 55 196 1.0 4.0 0.00 0.00 0.00 83 1017.0
20201030044522 55 222 1.0 5.0 0.00 0.00 0.00 83 1017.0
20201030044030 55 229 1.0 4.0 0.00 0.00 0.00 83 1017.0
20201030043520 55 232 2.0 4.0 0.00 0.00 0.00 83 1017.5
20201030042524 55 243 1.0 2.0 0.00 0.00 0.00 84 1018.0
20201030042019 55 241 1.0 3.0 0.00 0.00 0.00 84 1017.5
20201030041524 55 231 1.0 2.0 0.00 0.00 0.00 84 1017.0
20201030040022 55 227 2.0 4.0 0.00 0.00 0.00 84 1017.0
20201030035525 55 230 2.0 4.0 0.00 0.00 0.00 84 1017.0
20201030035021 55 238 2.0 4.0 0.00 0.00 0.00 84 1017.0
20201030034529 55 235 2.0 3.0 0.00 0.00 0.00 84 1017.0
20201030034023 55 223 2.0 5.0 0.00 0.00 0.00 84 1017.0
20201030033043 55 248 2.0 4.0 0.00 0.00 0.00 83 1017.0
20201030032522 55 255 2.0 3.0 0.00 0.00 0.00 83 1017.0
20201030031607 55 253 1.0 3.0 0.00 0.00 0.00 82 1017.0
20201030031024 55 240 1.0 4.0 0.00 0.00 0.00 82 1017.0
20201030030526 55 242 1.0 5.0 0.00 0.00 0.00 82 1017.0
20201030030036 55 227 1.0 3.0 0.00 0.00 0.00 82 1017.0
20201030025519 55 223 2.0 3.0 0.00 0.00 0.00 82 1017.0
20201030025048 55 225 2.0 4.0 0.00 0.00 0.00 82 1017.0
20201030024546 55 220 1.0 4.0 0.00 0.00 0.00 82 1017.0
20201030024026 55 225 2.0 3.0 0.00 0.00 0.00 82 1017.0
20201030023047 54 228 1.0 2.0 0.00 0.00 0.00 82 1017.0
20201030022520 54 222 2.0 4.0 0.00 0.00 0.00 82 1017.0
20201030022035 54 227 1.0 3.0 0.00 0.00 0.00 82 1017.0
20201030021019 54 225 1.0 3.0 0.00 0.00 0.00 82 1017.0
20201030020530 54 225 0.0 2.0 0.00 0.00 0.00 82 1017.0
20201030015549 54 0.0 0.0 0.00 0.00 0.00 81 1017.0
20201030015027 54 0.0 1.0 0.00 0.00 0.00 81 1017.0
20201030014531 54 0.0 0.0 0.00 0.00 0.00 81 1017.0
20201030014024 54 233 1.0 3.0 0.00 0.00 0.00 81 1017.0
20201030013523 54 234 1.0 3.0 0.00 0.00 0.00 81 1017.0
20201030013039 54 266 0.0 1.0 0.00 0.00 0.00 81 1017.0
20201030012544 54 269 2.0 3.0 0.00 0.00 0.00 82 1017.0
20201030012041 55 270 1.0 3.0 0.00 0.00 0.00 82 1017.0
20201030011534 55 266 1.0 4.0 0.00 0.00 0.00 82 1017.0
20201030010523 55 265 1.0 2.0 0.00 0.00 0.00 82 1017.0
20201030005526 55 248 1.0 3.0 0.00 0.00 0.00 82 1017.0
20201030005042 55 270 1.0 3.0 0.00 0.00 0.00 82 1017.0
20201030004528 55 263 1.0 3.0 0.00 0.00 0.00 82 1017.0
20201030004019 55 0.0 1.0 0.00 0.00 0.00 82 1017.0
20201030003526 55 270 0.0 2.0 0.00 0.00 0.00 82 1017.0
20201030003031 55 264 1.0 3.0 0.00 0.00 0.00 82 1017.0
20201030001525 55 270 1.0 3.0 0.00 0.00 0.00 82 1017.0
20201030001026 55 263 1.0 3.0 0.00 0.00 0.00 83 1017.0
20201030000026 55 239 1.0 2.0 0.00 0.00 0.00 83 1017.0
20201029234540 55 265 2.0 3.0 0.00 0.00 0.00 83 1017.0
20201029233523 55 252 2.0 4.0 0.00 0.00 0.00 83 1017.0
20201029232525 55 232 2.0 3.0 0.00 0.00 0.00 82 1017.0
20201029232036 55 243 2.0 4.0 0.00 0.00 0.00 82 1017.0
20201029231537 55 228 2.0 6.0 0.00 0.00 0.00 82 1017.0
20201029231025 55 230 1.0 3.0 0.00 0.00 0.00 82 1017.0
20201029230523 55 252 1.0 3.0 0.00 0.00 0.00 82 1017.0
20201029230024 55 232 2.0 6.0 0.00 0.00 0.00 82 1017.0
20201029225548 55 235 3.0 6.0 0.00 0.00 0.00 82 1017.0
20201029225043 55 230 2.0 5.0 0.00 0.00 0.00 82 1017.0
20201029224544 55 232 2.0 4.0 0.00 0.00 0.00 82 1017.0
20201029223521 55 240 1.0 3.0 0.00 0.00 0.00 81 1017.0
20201029223059 55 234 1.0 6.0 0.00 0.00 0.00 81 1017.0
20201029222531 55 235 2.0 4.0 0.00 0.00 0.00 81 1017.0
20201029222028 55 228 2.0 4.0 0.00 0.00 0.00 81 1017.0
20201029221532 55 225 3.0 6.0 0.00 0.00 0.00 81 1017.0
20201029220619 55 230 3.0 6.0 0.00 0.00 0.00 81 1016.5
20201029220028 55 231 3.0 8.0 0.00 0.00 0.00 81 1016.0
20201029214524 55 227 3.0 6.0 0.00 0.00 0.00 81 1017.0
20201029214026 55 231 2.0 4.0 0.00 0.00 0.00 80 1017.0
20201029213524 55 231 2.0 4.0 0.00 0.00 0.00 80 1016.5
20201029213038 55 236 2.0 4.0 0.00 0.00 0.00 80 1016.0
20201029211558 56 227 3.0 6.0 0.00 0.00 0.00 80 1017.0
20201029211026 56 225 3.0 4.0 0.00 0.00 0.00 79 1017.0
20201029210622 56 230 2.0 4.0 0.00 0.00 0.00 79 1017.0
20201029205550 56 236 2.0 4.0 0.00 0.00 0.00 79 1017.0
20201029205035 56 224 3.0 4.0 0.00 0.00 0.00 79 1017.0
20201029204554 56 234 2.0 4.0 0.00 0.00 0.00 79 1017.0
20201029204023 56 229 2.0 5.0 0.00 0.00 0.00 79 1017.0
20201029202523 56 236 2.0 6.0 0.00 0.00 0.00 79 1017.0
20201029202028 56 228 2.0 4.0 0.00 0.00 0.00 79 1017.0
20201029201524 57 232 2.0 4.0 0.00 0.00 0.00 79 1017.0
20201029201023 57 230 2.0 4.0 0.00 0.00 0.00 79 1017.0
20201029200527 57 227 3.0 4.0 0.00 0.00 0.00 79 1017.0
20201029200046 57 224 3.0 5.0 0.00 0.00 0.00 80 1017.0
20201029195602 57 204 3.0 4.0 0.00 0.00 0.00 80 1017.0
20201029195019 57 218 3.0 5.0 0.00 0.00 0.00 80 1017.0
20201029194600 57 211 3.0 5.0 0.00 0.00 0.00 80 1017.0
20201029192517 57 234 2.0 4.0 0.00 0.00 0.00 80 1017.0
20201029192037 57 224 2.0 4.0 0.00 0.00 0.00 80 1017.0
20201029191027 57 229 1.0 2.0 0.00 0.00 0.00 79 1017.0
20201029190610 56 227 2.0 4.0 0.00 0.00 0.00 79 1016.5
20201029185547 56 231 1.0 3.0 0.00 0.00 0.00 79
20201029185022 57 238 1.0 3.0 0.00 0.00 0.00 79 1016.4
20201029184524 57 244 1.0 2.0 0.00 0.00 0.00 79 1017.0
20201029183521 57 263 2.0 3.0 0.00 0.00 0.00 78 1017.0
20201029183036 57 263 2.0 4.0 0.00 0.00 0.00 78 1017.0
20201029182523 57 263 1.0 4.0 0.00 0.00 0.00 78 1017.0
20201029182039 57 260 1.0 3.0 0.00 0.00 0.00 78 1017.0
20201029181544 57 258 1.0 3.0 0.00 0.00 0.00 78 1017.0
20201029180600 57 240 2.0 4.0 0.00 0.00 0.00 78 1017.0
20201029180043 57 257 2.0 4.0 0.00 0.00 0.00 77 1017.0
20201029175104 57 255 2.0 3.0 0.00 0.00 0.00 77 1016.5
20201029174550 57 265 3.0 4.0 0.00 0.00 0.00 76 1016.0
20201029174040 58 268 2.0 4.0 0.00 0.00 0.00 76 1016.0
20201029173047 58 251 2.0 3.0 0.00 0.00 0.00 77 1017.0
20201029172533 58 231 3.0 5.0 0.00 0.00 0.00 76 1017.0
20201029171602 58 238 2.0 3.0 0.00 0.00 0.00 76 1017.0
20201029171022 58 228 2.0 5.0 0.00 0.00 0.00 75 1017.0
20201029170522 58 228 3.0 4.0 0.00 0.00 0.00 74 1017.0
20201029170045 58 224 3.0 6.0 0.00 0.00 0.00 74 1017.0
20201029165530 58 226 2.0 4.0 0.00 0.00 0.00 75 1017.0
20201029165042 58 232 2.0 4.0 0.00 0.00 0.00 75 1017.0
20201029164552 58 251 2.0 3.0 0.00 0.00 0.00 75 1017.0
20201029164043 58 245 2.0 6.0 0.00 0.00 0.00 74 1017.0
20201029163034 59 256 3.0 4.0 0.00 0.00 0.00 74 1017.0
20201029162522 59 257 3.0 5.0 0.00 0.00 0.00 74 1017.0
20201029161526 59 254 3.0 6.0 0.00 0.00 0.00 73 1016.0
20201029161028 59 264 3.0 6.0 0.00 0.00 0.00 73 1016.0
20201029160022 60 253 3.0 6.0 0.00 0.00 0.00 72 1016.0
20201029155522 60 266 3.0 6.0 0.00 0.00 0.00 71 1016.0
20201029155026 60 257 3.0 4.0 0.00 0.00 0.00 70 1016.0
20201029154525 60 261 3.0 5.0 0.00 0.00 0.00 69 1016.0
20201029153523 61 259 3.0 6.0 0.00 0.00 0.00 68 1016.0
20201029153042 61 266 3.0 4.0 0.00 0.00 0.00 67 1016.0
20201029152530 61 261 3.0 6.0 0.00 0.00 0.00 66 1016.0
20201029151603 61 260 3.0 6.0 0.00 0.00 0.00 66 1016.0
20201029150026 62 268 5.0 6.0 0.00 0.00 0.00 63 1016.0
20201029145044 62 274 6.0 9.0 0.00 0.00 0.00 62 1016.0
20201029144523 63 270 7.0 11.0 0.00 0.00 0.00 61 1016.0
20201029144023 63 273 6.0 9.0 0.00 0.00 0.00 61 1016.0
20201029143522 63 277 5.0 12.0 0.00 0.00 0.00 61 1016.0
20201029142603 64 277 4.0 7.0 0.00 0.00 0.00 61 1016.0
20201029142033 64 261 5.0 10.0 0.00 0.00 0.00 61 1016.0
20201029141536 64 257 5.0 10.0 0.00 0.00 0.00 60 1016.0
20201029141020 64 276 5.0 10.0 0.00 0.00 0.00 60 1016.0
20201029140549 64 265 4.0 9.0 0.00 0.00 0.00 60 1016.0
20201029140036 64 260 5.0 11.0 0.00 0.00 0.00 59 1016.0
20201029135521 64 272 5.0 10.0 0.00 0.00 0.00 59 1016.0
20201029134524 64 270 7.0 12.0 0.00 0.00 0.00 58 1016.0
20201029134023 64 271 6.0 11.0 0.00 0.00 0.00 57 1016.0
20201029133528 65 268 4.0 9.0 0.00 0.00 0.00 57 1016.0
20201029133021 65 271 6.0 12.0 0.00 0.00 0.00 57 1016.0
20201029132516 65 270 9.0 11.0 0.00 0.00 0.00 56 1016.0
20201029132025 65 267 7.0 15.0 0.00 0.00 0.00 57 1016.0
20201029131529 65 273 5.0 10.0 0.00 0.00 0.00 57 1016.0
20201029131021 65 296 6.0 9.0 0.00 0.00 0.00 56 1016.0
20201029130543 65 291 8.0 14.0 0.00 0.00 0.00 56 1016.0
20201029130039 65 290 7.0 12.0 0.00 0.00 0.00 56 1016.0
20201029125525 65 274 7.0 12.0 0.00 0.00 0.00 57 1016.0
20201029125029 65 292 6.0 11.0 0.00 0.00 0.00 58 1016.0
20201029123521 65 286 5.0 8.0 0.00 0.00 0.00 58 1016.0
20201029123032 65 277 6.0 10.0 0.00 0.00 0.00 58 1016.0
20201029122028 65 288 7.0 15.0 0.00 0.00 0.00 55 1016.0
20201029121521 66 277 7.0 11.0 0.00 0.00 0.00 56 1016.0
20201029121033 66 264 7.0 14.0 0.00 0.00 0.00 57 1016.0
20201029120606 66 279 6.0 15.0 0.00 0.00 0.00 57 1016.0
20201029120028 66 281 7.0 11.0 0.00 0.00 0.00 57 1016.0
20201029115527 65 280 8.0 13.0 0.00 0.00 0.00 59 1016.0
20201029115028 65 270 8.0 15.0 0.00 0.00 0.00 59 1016.0
20201029114023 65 276 6.0 11.0 0.00 0.00 0.00 59 1016.0
20201029113030 65 265 8.0 15.0 0.00 0.00 0.00 61 1016.0
20201029112558 65 279 6.0 13.0 0.00 0.00 0.00 62 1016.0
20201029112023 65 276 9.0 16.0 0.00 0.00 0.00 61 1016.5
20201029111529 64 287 6.0 13.0 0.00 0.00 0.00 64 1017.0
20201029110035 64 270 6.0 12.0 0.00 0.00 0.00 64 1016.0
20201029105538 64 271 7.0 13.0 0.00 0.00 0.00 64 1016.0
20201029105022 64 272 6.0 19.0 0.00 0.00 0.00 65 1016.5
20201029104527 64 277 7.0 11.0 0.00 0.00 0.00 65 1017.0
20201029103524 64 274 5.0 12.0 0.00 0.00 0.00 67 1017.0
20201029103105 64 283 5.0 13.0 0.00 0.00 0.00 67 1017.0
20201029102541 64 289 7.0 11.0 0.00 0.00 0.00 67 1017.0
20201029102059 64 291 6.0 12.0 0.00 0.00 0.00 67 1017.0